Regional Weather Roundup
Issued by NWS Newport/Morehead, NC

Current Version | Previous Version | Graphics & Text | Print | Product List | Glossary Off
Versions: 1 2 3 4 5 6 7 8 9 10 11 12 13 14 15 16 17 18 19 20 21 22 23 24 25 26 27 28 29 30 31 32 33 34 35 36 37 38 39 40 41 42 43 44 45 46 47 48 49 50

000
ASUS42 KMHX 131813
RWRMHX
WEATHER ROUNDUP FOR EASTERN NORTH CAROLINA
NATIONAL WEATHER SERVICE NEWPORT/MOREHEAD CITY NC
100 PM EST SAT FEB 13 2016

NOTE: "FAIR" INDICATES FEW OR NO CLOUDS BELOW 12,000 FEET
WITH NO SIGNIFICANT WEATHER AND/OR OBSTRUCTIONS TO VISIBILITY

NCZ015>017-031-032-045>047-102-103-131900-
NORTH COAST

CITY           SKY/WX    TMP DP  RH WIND       PRES   REMARKS
EDENTON        SUNNY     35  10  35 NW17      30.25S
ELIZABETH CITY SUNNY     31   7  36 NW16G30   30.24F WCI  20
KITTY HAWK     NOT AVBL
MANTEO         NOT AVBL

$$

NCZ045>047-081-094-103-104-131900-
CENTRAL COAST

CITY           SKY/WX    TMP DP  RH WIND       PRES   REMARKS
FRISCO         MOSUNNY   33  14  45 NW15G22   30.23F
SWANQUARTER      N/A     34 N/A N/A N9G20     30.21S

$$

NCZ095-097-098-100-101-131900-
SOUTHERN COAST

CITY           SKY/WX    TMP DP  RH WIND       PRES   REMARKS
BEAUFORT       MOSUNNY   35  18  49 NW20G25   30.25S
CEDAR ISLAND     N/A     34 N/A N/A NW14G31   30.27S
JACKSONVILLE   SUNNY     37  11  34 NW23G29   30.26F
PINEY ISLAND   CLEAR    N/A N/A N/A NW17G25   30.24F
WILMINGTON     SUNNY     41  16  36 NW18G28   30.26F


$$

NCZ011>013-027>030-043-044-078>080-089-090>093-098-131900-
COASTAL PLAIN

CITY           SKY/WX    TMP DP  RH WIND       PRES   REMARKS
AHOSKIE        SUNNY     31  -2  24 NW7G18    30.27F
CLINTON        SUNNY     35  13  40 NW12      30.30F
ELIZABETHTOWN  SUNNY     38  13  36 NW13      30.29F
GOLDSBORO      SUNNY     34   7  32 NW15G26   30.26F
GREENVILLE     SUNNY     32   5  32 NW14G21   30.29S
HAVELOCK       SUNNY     36   9  32 N18G29    30.26F
KENANSVILLE    SUNNY     34  14  44 N10G16    30.30F
KINSTON        SUNNY     34   9  35 N14G21    30.29F
NEW BERN       SUNNY     34   9  35 NW18G25   30.27F
RICHLANDS      SUNNY     36  16  44 CALM      30.28F
ROCKY MOUNT    SUNNY     33   4  29 NW17G23   30.30F
WASHINGTON     SUNNY     32   7  35 NW15G22   30.26F
WHITEVILLE     SUNNY     40  15  36 N6        30.27F

$$

AMZ130-135-150-152-154-156-158-170-250-252-270-ANZ085-086-088-633-658-670-131900-
MARINE OBSERVATIONS

STATION/POSITION TIME  TEMP    WIND        PRES    WAVE   SWELL
                       AIR SEA DIR/SP/G            HT/PER HT/PER
                 (UTC) (F)     (DEG/KT/KT) (MB)    (FT/S) (FT/S)
CHESAPEAKE LIGHT 1800   28     310/ 24/ 27 1023.9
64 E VA BEACH    1750   30 48  320/ 27/ 35 1021.5   10/ 8
DUCK             1700   29     320/ 22/ 27 1022.7
2 E DUCK         1711      42                N/A     5/ 7
OREGON INLET     1700   30 37  310/ 18/ 23 1023.6
13E OREGON INLT  1700      45                N/A     7/ 6   2/11
HATTERAS CG      1700   31 42  340/ 16/ 21 1023.6
DIAMOND BUOY     1750   34 71  350/ 17/ 25 1023.2    5/ 8   2/11
CAPE LOOKOUT     NOT AVBL
BEAUFORT LAB     1700   35 42  340/ 12/ 16 1023.3
30 SE NEW RVR IN 1708   39 62              1023.6
30 SE NEW RVR IN 1725      62                N/A     5/ 5
27 SE WRIGHTSVLE 1708   41 60  360/ 14/ 21 1023.2
5 SE WRIGHTSVLE  1708   39 50  340/ 16/ 23 1025.0
225 S CAPE HAT   1750   55 68  340/ 21/ 25   N/A     9/10   5/10
41 SE CHARLESTON 1750   45 67  350/ 12/ 17 1024.1    4/ 6   2/ 7

$$



USA.gov is the U.S. government's official web portal to all federal, state and local government web resources and services.